Location: Arroyo Retuerta
(40.5469°N, 4.3534°W)
Time: 12:28:27
(UTC+00:00)

COSMOS 2455 - Pass Details

Date: 01 June 2020
Orbit: 899 x 911 km, 67.1° (Epoch: 06 July)

Event Time Altitude Azimuth Distance (km) Brightness Sun altitude
Exits shadow 22:52:55 52° 122° (ESE) 1,115 3.0 -24.4°
Maximum altitude 22:53:10 52° 113° (ESE) 1,111 3.0 -24.4°
Drops below altitude 10° 22:58:59 10° 38° (NE) 2,595 5.6 -24.8°
Sets 23:01:33 0° 34° (NE) 3,542 6.4 -24.9°
